Fairfield, OH

12:08 AM EST on December 03, 2016 (GMT -0500)
Butler County Regional

Weather History for KHAO - October, 2012

Change the Weather History Date:

Monday, October 15, 2012

  Actual Average (KCVG) Record (KCVG)
Temperature  
Mean Temperature 50 °F 56 °F  
Max Temperature 62 °F 67 °F 87 °F (1897)
Min Temperature 39 °F 46 °F 28 °F (2006)
Degree Days  
Heating Degree Days 15 9  
Month to date heating degree days 113  
Since 1 July heating degree days 171  
Cooling Degree Days 0 0  
Month to date cooling degree days 16  
Year to date cooling degree days 1121  
Moisture  
Dew Point 46 °F    
Average Humidity 76    
Maximum Humidity 94    
Minimum Humidity 46    
Precipitation  
Precipitation 0.00 in 0.11 in 1.59 in (1914)
Month to date precipitation 1.59  
Year to date precipitation 34.01  
Snow  
Snow 0.00 in 0.00 in 0.00 in ()
Month to date snowfall 0.1  
Since 1 July snowfall 0.1  
Since 1 September snowfall 0.1  
Snow Depth -    
Sea Level Pressure  
Sea Level Pressure 29.89 in    
Wind  
Wind Speed 10 mph (West)    
Max Wind Speed 16 mph    
Max Gust Speed 22 mph    
Visibility 10 miles    
Events Rain    
T = Trace of Precipitation, MM = Missing Value Source: NWS Daily Summary

Daily Weather History Graph

Daily Weather History Graph

Search for Another Location

Airport or City:

Trip Planner

Search our weather history database for the weather conditions in past years. The results will help you decide how hot, cold, wet, or windy it might be!

Date:

Astronomy

Oct. 15, 2012 Rise Set
Actual Time 7:48 AM EDT 6:58 PM EDT
Civil Twilight 7:21 AM EDT 7:25 PM EDT
Nautical Twilight 6:50 AM EDT 7:56 PM EDT
Astronomical Twilight 6:19 AM EDT 8:27 PM EDT
Moon 7:57 AM EDT (10/15) 6:57 PM EDT (10/15)
Length of Visible Light 12h 04m
Length of Day
11h 09m
New Moon, 0% of the Moon is Illuminated
Oct 15
New Moon
Oct 21
First Quarter
Oct 29
Full
Nov 6
Last Quarter
Nov 13
New

Hourly Weather History & Observations

Time (EDT) Temp. Dew Point Humidity Pressure Visibility Wind Dir Wind Speed Gust Speed Precip Events Conditions
12:41 AM 59.0 °F 53.6 °F 82% 29.81 in 10.0 mi WNW 16.1 mph 20.7 mph N/A   Overcast
12:53 AM 59.0 °F 53.1 °F 81% 29.81 in 10.0 mi WNW 15.0 mph 21.9 mph N/A   Overcast
1:53 AM 57.9 °F 53.1 °F 84% 29.82 in 10.0 mi WNW 8.1 mph - N/A   Overcast
2:53 AM 55.9 °F 52.0 °F 87% 29.82 in 10.0 mi WNW 10.4 mph - N/A   Mostly Cloudy
3:09 AM 55.4 °F 51.8 °F 88% 29.82 in 10.0 mi WNW 9.2 mph - N/A   Mostly Cloudy
3:53 AM 55.0 °F 51.1 °F 86% 29.81 in 10.0 mi WNW 8.1 mph - N/A   Mostly Cloudy
4:53 AM 55.9 °F 51.1 °F 84% 29.82 in 10.0 mi West 3.5 mph - N/A   Overcast
5:04 AM 55.4 °F 51.8 °F 88% 29.83 in 10.0 mi WSW 4.6 mph - N/A   Overcast
5:53 AM 54.0 °F 50.0 °F 86% 29.83 in 8.0 mi West 4.6 mph - 0.00 in Rain Light Rain
6:10 AM 53.6 °F 51.8 °F 94% 29.84 in 10.0 mi WSW 4.6 mph - 0.00 in   Overcast
6:40 AM 53.6 °F 50.0 °F 88% 29.85 in 10.0 mi WSW 8.1 mph - 0.00 in   Overcast
6:53 AM 53.1 °F 48.9 °F 86% 29.85 in 10.0 mi WSW 6.9 mph - 0.00 in   Overcast
7:28 AM 53.6 °F 48.2 °F 82% 29.85 in 10.0 mi WSW 8.1 mph - N/A   Overcast
7:53 AM 53.1 °F 45.0 °F 74% 29.85 in 10.0 mi West 8.1 mph 17.3 mph N/A   Overcast
8:53 AM 53.1 °F 44.1 °F 71% 29.87 in 10.0 mi West 9.2 mph - N/A   Overcast
9:49 AM 53.6 °F 44.6 °F 72% 29.89 in 10.0 mi West 9.2 mph - N/A   Overcast
9:53 AM 53.1 °F 45.0 °F 74% 29.89 in 10.0 mi West 12.7 mph 17.3 mph N/A   Overcast
10:05 AM 53.6 °F 44.6 °F 72% 29.90 in 10.0 mi WNW 13.8 mph 19.6 mph N/A   Overcast
10:53 AM 53.1 °F 44.1 °F 71% 29.91 in 10.0 mi West 6.9 mph 17.3 mph N/A   Overcast
11:11 AM 53.6 °F 44.6 °F 72% 29.91 in 10.0 mi West 9.2 mph 17.3 mph N/A   Overcast
11:53 AM 55.0 °F 44.1 °F 67% 29.92 in 10.0 mi West 10.4 mph 17.3 mph N/A   Overcast
12:53 PM 57.9 °F 44.1 °F 60% 29.93 in 10.0 mi WNW 12.7 mph - N/A   Overcast
1:53 PM 57.9 °F 42.1 °F 56% 29.92 in 10.0 mi WNW 16.1 mph 21.9 mph N/A   Mostly Cloudy
2:53 PM 60.1 °F 43.0 °F 53% 29.92 in 10.0 mi West 9.2 mph 18.4 mph N/A   Overcast
3:53 PM 59.0 °F 41.0 °F 51% 29.93 in 10.0 mi West 10.4 mph 16.1 mph N/A   Mostly Cloudy
4:53 PM 61.0 °F 39.9 °F 46% 29.93 in 10.0 mi West 6.9 mph 20.7 mph N/A   Clear
5:53 PM 59.0 °F 39.9 °F 49% 29.93 in 10.0 mi WNW 15.0 mph - N/A   Clear
6:53 PM 55.9 °F 39.9 °F 55% 29.95 in 10.0 mi WNW 3.5 mph - N/A   Partly Cloudy
7:53 PM 46.0 °F 39.9 °F 79% 29.96 in 10.0 mi Calm Calm - N/A   Clear
8:53 PM 42.1 °F 39.0 °F 89% 29.98 in 10.0 mi Calm Calm - N/A   Clear
9:53 PM 41.0 °F 39.0 °F 93% 29.99 in 10.0 mi Calm Calm - N/A   Clear
10:53 PM 39.0 °F 37.0 °F 93% 29.99 in 10.0 mi Calm Calm - N/A   Clear
11:53 PM 39.0 °F 37.0 °F 93% 30.00 in 10.0 mi Calm Calm - N/A   Clear